TimeEST,TemperatureF,Dew PointF,Humidity,Sea Level PressureIn,VisibilityMPH,Wind Direction,Wind SpeedMPH,Gust SpeedMPH,PrecipitationIn,Events,Conditions,WindDirDegrees,DateUTC
12:56 AM,33.1,18.0,54,30.32,10.0,NNW,4.6,-,N/A,,Partly Cloudy,330,2012-12-06 05:56:00
1:56 AM,32.0,18.0,56,30.33,10.0,NNW,6.9,-,N/A,,Clear,330,2012-12-06 06:56:00
2:56 AM,32.0,18.0,56,30.32,10.0,North,10.4,-,N/A,,Clear,360,2012-12-06 07:56:00
3:56 AM,30.9,18.0,59,30.33,10.0,North,4.6,-,N/A,,Clear,360,2012-12-06 08:56:00
4:56 AM,28.0,18.0,66,30.34,10.0,NW,3.5,-,N/A,,Clear,310,2012-12-06 09:56:00
5:56 AM,28.0,19.0,69,30.35,10.0,NNW,5.8,-,N/A,,Clear,330,2012-12-06 10:56:00
6:56 AM,28.0,19.0,69,30.36,10.0,NNW,5.8,-,N/A,,Clear,330,2012-12-06 11:56:00
7:56 AM,28.0,19.9,72,30.38,10.0,Calm,Calm,-,N/A,,Clear,0,2012-12-06 12:56:00
8:56 AM,30.9,19.0,61,30.39,10.0,Calm,Calm,-,N/A,,Partly Cloudy,0,2012-12-06 13:56:00
9:56 AM,33.1,19.0,56,30.39,10.0,Calm,Calm,-,N/A,,Scattered Clouds,0,2012-12-06 14:56:00
10:56 AM,36.0,21.0,55,30.37,10.0,SW,3.5,-,N/A,,Mostly Cloudy,220,2012-12-06 15:56:00
11:56 AM,37.0,19.9,50,30.34,10.0,Variable,3.5,-,N/A,,Mostly Cloudy,0,2012-12-06 16:56:00
12:56 PM,39.0,19.0,45,30.30,10.0,SE,4.6,-,N/A,,Mostly Cloudy,140,2012-12-06 17:56:00
1:56 PM,39.9,19.9,45,30.28,10.0,ESE,4.6,-,N/A,,Mostly Cloudy,110,2012-12-06 18:56:00
2:56 PM,41.0,21.0,45,30.28,10.0,SE,5.8,-,N/A,,Mostly Cloudy,140,2012-12-06 19:56:00
3:56 PM,39.9,21.9,49,30.27,10.0,ESE,6.9,-,N/A,,Mostly Cloudy,110,2012-12-06 20:56:00
4:56 PM,34.0,21.0,59,30.27,10.0,ESE,6.9,-,N/A,,Mostly Cloudy,120,2012-12-06 21:56:00
5:56 PM,36.0,21.9,57,30.27,10.0,Calm,Calm,-,N/A,,Mostly Cloudy,0,2012-12-06 22:56:00
6:56 PM,34.0,21.9,61,30.27,10.0,Calm,Calm,-,N/A,,Mostly Cloudy,0,2012-12-06 23:56:00
7:56 PM,34.0,24.1,67,30.27,10.0,Calm,Calm,-,N/A,,Mostly Cloudy,0,2012-12-07 00:56:00
8:56 PM,32.0,23.0,69,30.27,10.0,Calm,Calm,-,N/A,,Mostly Cloudy,0,2012-12-07 01:56:00
9:56 PM,32.0,21.9,66,30.27,10.0,East,3.5,-,N/A,,Mostly Cloudy,80,2012-12-07 02:56:00
10:56 PM,30.0,24.1,79,30.27,10.0,Calm,Calm,-,N/A,,Mostly Cloudy,0,2012-12-07 03:56:00
11:56 PM,33.1,25.0,72,30.25,10.0,SSE,5.8,-,N/A,,Mostly Cloudy,160,2012-12-07 04:56:00